Location: Melque
(41.0517°N, 4.4694°W)
Time: 17:46:42
(UTC+00:00)

Meteor 1-20 Rocket - Pass Details

Date: 13 March 2026
Orbit: 817 x 891 km, 81.2° (Epoch: 14 April)

Event Time Altitude Azimuth Distance (km) Brightness Sun altitude
Rises 04:08:40 0° 8° (N) 3,462 7.8 -27.5°
Reaches altitude 10° 04:12:29 10° 33° (NNE) 2,503 7.3 -26.9°
Maximum altitude 04:15:21 14° 63° (ENE) 2,212 7.3 -26.4°
Drops below altitude 10° 04:18:11 10° 94° (E) 2,469 7.5 -25.9°
Sets 04:21:52 0° 119° (ESE) 3,382 7.9 -25.2°
